CUBEBUG-2 (LO-74) (39440 NORAD) Tracking and Keplerian Element Data

This shows tracking and keplerian element data for the satellite.

Feedback or suggestion? Click here.




ElementValue
Catalog39440
NameCUBEBUG-2 (LO-74)
Epoch Orbit42021
Epoch Day261.9195256
Epoch Year2021
RAAN226.7004
Inclination97.6863
Eccentricity0.0078363
Argument of Perigee292.8614
Mean Anonmoly66.4336
Mean Motion14.76319155
Decay Rate3.24E-06
L11 39440U 13066AA 21261.91952560 .00000324 00000-0 51770-4 0 9998
L22 39440 97.6863 226.7004 0078363 292.8614 66.4336 14.76319155420210

Live tracking and technical data element details for CUBEBUG-2 (LO-74) (NORAD 39440). CUBEBUG-2 (LO-74) can be tracked NOW for your location showing map with azimuth and elevation plus other details from your city location.

Track the satellite on the map from your city or location and see movement details for azimuth, elevation, latitude, longitude, range, height, and movement on the map or in text.







IsCatalogInMostPopularTable: catalog: 39440, numindb: 525
Update: records affected: 1



GetName: 39440 CUBEBUG-2 (LO-74)

Hit Count: updated at: Sun, 26 Sep 2021 01:01:49 GMT